Regional Weather Roundup
Issued by NWS

Home | Current Version | Previous Version | Graphics & Text | Print | Product List | Glossary On
Versions: 1 2 3 4 5 6 7 8 9 10 11 12 13 14 15 16 17 18 19 20 21 22 23 24 25 26 27 28 29 30 31 32 33 34 35 36 37 38 39 40 41 42 43 44 45 46 47 48 49 50
000
ASUS43 KMPX 311010
RWRMN
WEATHER ROUNDUP FOR MINNESOTA
NATIONAL WEATHER SERVICE TWIN CITIES/CHANHASSEN MN
500 AM CDT WED AUG 31 2016


NOTE: "FAIR" INDICATES FEW OR NO CLOUDS BELOW 12,000 FEET WITH NO
SIGNIFICANT WEATHER AND/OR OBSTRUCTIONS TO VISIBILITY. N/A MEANS
CURRENT SKY AND/OR WEATHER CONDITIONS ARE NOT AVAILABLE.

MNZ060>063-068>070-311100-
   Twin Cities Metro

CITY           SKY/WX    TMP DP  RH WIND       PRES   REMARKS
TWIN CITIES    CLEAR     60  56  86 NW3       30.20R
ST PAUL        PTCLDY    57  55  93 CALM      30.20S
CRYSTAL        CLEAR     54  51  90 CALM      30.19S
BLAINE         CLEAR     55  55 100 CALM      30.20S
LAKEVILLE      CLEAR     52  52 100 CALM      30.19F
EDEN PRAIRIE   CLEAR     59  55  87 N5        30.19S
LAKEVILLE      CLEAR     52  52 100 CALM      30.19F
SOUTH ST PAUL  PTCLDY    58  56  94 CALM      30.19S
LAKE ELMO      FAIR      54  54 100 CALM      30.20F FOG
$$
MNZ001>005-007-008-013>017-022>024-027-028-311100-
   Northwest Minnesota

CITY           SKY/WX    TMP DP  RH WIND       PRES   REMARKS
BEMIDJI        CLEAR     45  45  99 CALM      30.24R
HALLOCK        CLEAR     50  46  87 NE3       30.25S
ROSEAU         CLEAR     48  45  87 CALM      30.26R
WARROAD        CLEAR     52  46  82 NW5       30.25S
THIEF RVR FALL CLEAR     53  49  86 CALM      30.25R
CROOKSTON      CLEAR     52  48  87 CALM      30.24S
FOSSTON        PTCLDY    48  46  93 CALM      30.25R
DETROIT LAKES  CLEAR     59  54  82 CALM      30.24S
MOORHEAD       CLEAR     54  54 100 CALM      30.23S
MAHNOMEN       FAIR      51  51  98 CALM      30.24R FOG
$$
MNZ006-009>011-018-025>026-311100-
   North Central Minnesota

CITY           SKY/WX    TMP DP  RH WIND       PRES   REMARKS
BAUDETTE       PTCLDY    48  47  96 CALM      30.23S
FLAG ISLAND    CLEAR     57  54  88 CALM      30.23R
INTL FALLS     CLEAR     43  41  93 NW5       30.21S
WASKISH        CLEAR     48  48 100 CALM      30.23S
BIG FORK       CLEAR     43  43 100 CALM      30.23R FOG
LONGVILLE      CLEAR     48  48 100 CALM      30.22R
GRAND RAPIDS   FOG       50  50 100 CALM      30.24R VSB 1/4
CRANE LAKE     PTCLDY    43  43 100 CALM      30.22S
ORR            CLEAR     50  46  87 CALM      30.19S
COOK           CLEAR     45  45 100 CALM      30.22R
WALKER         FAIR      50  50  99 CALM      30.23S FOG
$$
MNZ012-019>021-037-311100-
   Northeast Minnesota

CITY           SKY/WX    TMP DP  RH WIND       PRES   REMARKS
DULUTH         CLEAR     53  50  89 N7        30.20R
ELY            PTCLDY    45  45 100 CALM      30.21R
HIBBING        PTCLDY    41  41 100 CALM      30.21S FOG
EVELETH        PTCLDY    45  44  97 CALM      30.22R
DULUTH HARBOR  CLEAR     55  52  88 SW5       30.19R
TWO HARBORS    CLEAR     55  52  88 NW3       30.17R
SILVER BAY     CLOUDY    48  48 100 CALM      30.17R
GRAND MARAIS     N/A     61  53  75 N12G18    30.14S
G MARAIS ARPRT CLEAR     46  45  93 NW3       30.19S
$$
MNZ029>031-032-039>041-046>048-054>057-064-311100-
   West Central Minnesota

CITY           SKY/WX    TMP DP  RH WIND       PRES   REMARKS
FERGUS FALLS   CLEAR     59  55  88 E3        30.24S
WHEATON        CLEAR     55  54  94 CALM      30.24R
MORRIS         CLEAR     55  54  94 CALM      30.22R
ALEXANDRIA     CLEAR     56  53  90 CALM      30.24S
ELBOW LAKE     FAIR      60  57  89 CALM      30.24R
WADENA           N/A     50  48  93 CALM      30.23R FOG
GLENWOOD       CLEAR     57  55  94 NE3       30.23S
APPLETON       CLEAR     55  54  94 CALM      30.21S
BENSON         CLEAR     52  48  87 CALM      30.22R FOG
ORTONVILLE     CLEAR     57  52  82 CALM      30.22S
MADISON        CLEAR     57  55  94 CALM      30.22R
WILLMAR        FAIR      57  55  94 CALM      30.23S
$$
MNZ033>034-036-042>043-049>051-058-059-311100-
   Central Minnesota

CITY           SKY/WX    TMP DP  RH WIND       PRES   REMARKS
ST CLOUD       CLEAR     53  53 100 CALM      30.22R
SAUK CENTRE    FAIR      53  53  98 CALM      30.23S
PAYNESVILLE    FOG       52  52 100 CALM      30.23R VSB 1
AITKIN         HAZE      48  45  87 CALM      30.21S VSB 1/2
PINE RIVER     CLEAR     48  48 100 CALM      30.25S
BRAINERD       CLEAR     52  51  97 CALM      30.22S
STAPLES        CLEAR     52  50  93 CALM      30.23R
LONG PRAIRIE   FAIR      54  52  94 CALM      30.23S
LITTLE FALLS   FOG       50  48  93 CALM      30.23R VSB 3/4
LITCHFIELD     CLEAR     57  57 100 CALM      30.22S
BUFFALO        PTCLDY    56  52  88 CALM      30.22R
MAPLE LAKE     CLEAR     55  54  98 CALM      30.22S FOG
HUTCHINSON     CLEAR     55  55  99 N5        30.22S
$$
MNZ037-044-045-052-053-311100-
   East Central Minnesota

CITY           SKY/WX    TMP DP  RH WIND       PRES   REMARKS
PRINCETON        N/A     52  50  93 CALM      30.22R
MORA           CLEAR     50  50 100 CALM      30.22S
CAMBRIDGE      PTCLDY    52  46  82 CALM      30.19S
RUSH CITY      MOCLDY    50  49  95 CALM      30.21R
MOOSE LAKE     CLEAR     48  46  93 CALM      30.19R
HINCKLEY       FAIR      50  50 100 CALM      30.21R
CLOQUET        CLEAR     48  46  93 NW6       30.20S
MCGREGOR       PTCLDY    48  46  93 CALM      30.22S
$$
MNZ071>073-080-081-089-090-097-098-311100-
   Southwest Minnesota

CITY           SKY/WX    TMP DP  RH WIND       PRES   REMARKS
MONTEVIDEO     CLEAR     57  54  88 CALM      30.23S
GRANITE FALLS  CLEAR     56  55  95 CALM      30.23S
CANBY          CLEAR     56  54  93 CALM      30.23S
MARSHALL       CLEAR     55  53  93 W5        30.22S
REDWOOD FALLS  CLEAR     59  55  87 CALM      30.20F
OLIVIA         CLEAR     59  55  88 CALM      30.21R
WINDOM         CLEAR     54  52  94 CALM      30.22S
WORTHINGTON    CLEAR     55  53  93 CALM      30.22F
JACKSON        FOG       54  52  94 CALM      30.22S VSB 1
TRACY          CLEAR     60  56  88 W3        30.22S
SLAYTON        PTCLDY    54  52  94 NW5       30.23S
$$
MNZ065>067-074>077-082>085-091>093-311100-
   South Central Minnesota

CITY           SKY/WX    TMP DP  RH WIND       PRES   REMARKS
NEW ULM        CLEAR     55  54  94 CALM      30.21S
ST JAMES       CLEAR     54  54 100 CALM      30.21F
FAIRMONT       CLEAR     55  54  96 NW5       30.21S
GLENCOE        CLEAR     57  57 100 CALM      30.20S
FARIBAULT      CLEAR     52  52 100 CALM      30.20S
OWATONNA       FOG       52  52 100 CALM      30.20S VSB 1/2
WASECA         CLEAR     52  52 100 N5        30.21S
ALBERT LEA     CLEAR     55  54  94 CALM      30.19S
$$
MNZ078>079-086>088-094>096-311100-
   Southeast Minnesota

CITY           SKY/WX    TMP DP  RH WIND       PRES   REMARKS
ROCHESTER      CLEAR     56  55  97 N6        30.19S
RED WING       CLEAR     54  54 100 CALM      30.18S
STANTON        CLEAR     54  52  94 CALM      30.19R
DODGE CENTER   PTCLDY    55  52  88 N5        30.19S
WINONA         PTCLDY    55  55 100 NW3       30.17S FOG
AUSTIN         CLEAR     55  52  88 N3        30.18S
PRESTON        CLEAR     57  53  87 N5        30.18F
$$
ABBREVIATIONS USED IN REMARKS
   TC - TEMPERATURES IN CELSIUS
  WCI - WIND CHILL INDEX
   HX - HEAT INDEX
  VSB - VISIBILITY
$$




USA.gov is the U.S. government's official web portal to all federal, state and local government web resources and services.